Location: Betz
(49.1556°N, 2.9558°E)
Time: 20:40:53
(UTC+00:00)

NOAA 11 - Pass Details

Date: 18 September 2019
Orbit: 832 x 850 km, 98.4° (Epoch: 13 October)

Event Time Altitude Azimuth Distance (km) Brightness Sun altitude
Rises 18:42:42 0° 166° (SSE) 3,403 7.1 -8.5°
Reaches altitude 10° 18:45:04 10° 168° (SSE) 2,470 6.4 -8.8°
Maximum altitude 18:50:34 81° 256° (WSW) 865 4.4 -9.7°
Drops below altitude 10° 18:56:06 10° 344° (NNW) 2,480 7.1 -10.6°
Sets 18:58:28 0° 345° (NNW) 3,417 7.8 -11.0°
